Simultaneous Nadir Overpasses (SNOs) Predictions

Prediction of SNOs over PacNW region [( 10.00, 139.50) to ( 22.70, 165.60)] between AQUA and NPP Satellites:

Table of predicted SNOs over PacNW region for the next 30.0 days since TLE Epoch: 1/17/2020
Index Date (AQUA) Time (AQUA) AQUA Lat,Lon Date (NPP) Time (NPP) NPP Lat,Lon Distance(km) Time Diff (sec)
1 01/25/2020 15:09:50 22.60, 159.86 01/25/2020 15:10:21 23.18, 157.34 265.58 31
2 02/02/2020 15:59:18 22.61, 147.50 02/02/2020 16:00:58 23.21, 144.69 295.72 100
3 02/10/2020 15:09:53 22.63, 159.87 02/10/2020 15:10:07 23.16, 157.39 260.93 14




NCC Satellite Simultaneous Nadir Overpasses (SNOs) Prediction Service
